CAPE
0 0 0 0 0 0 0 0 0 0 0 5 17 22 22 6 9 0 0 108 240 253 223 94 157 326 494 907 1888 1779 1599 1496 1507 1424 1643 1720 1814 2014 2130 2145 1900 2015 1832 1654 1708 1774 1858 2002 2143 2136 2104 2183 2220 2256 2349 2586 2740 2754 2525 2413 2538 2635 2774 2902 2110 3056 2261 1678 1995 2402 2472 1705 2482 1770 3382 3468 3392 3934 3538 3607 3572 3845 3360 2632 2112 2361
0 0 0 0 0 0 0 0 0 0 0 4 4 13 21 18 8 3 19 217 201 116 124 192 216 349 490 716 1363 1898 1748 1518 1410 1510 1600 1845 1957 2087 2359 2359 2234 2039 1826 1660 1694 1670 1683 1665 1842 2167 2221 2168 2152 2394 2658 2906 3126 3162 2859 2474 2301 2450 2623 3060 2535 2806 2288 2010 2320 2474 2954 1868 1519 2111 2152 2553 3160 2297 2682 3984 3666 2817 3269 2974 3022 3146
0 0 0 0 0 0 0 0 0 0 0 0 0 6 10 6 7 22 22 227 444 170 126 366 454 447 578 511 719 1526 1888 1700 1409 1390 1421 1830 2001 2086 2262 2428 2446 2114 1981 1723 1800 1944 1684 1651 1597 1952 2086 1963 1942 2166 2605 3192 3566 3393 3302 2748 2654 2475 2408 2548 2706 3143 2866 2714 3048 2118 1673 1559 2026 1786 1747 2529 2394 2666 3260 2724 2463 2899 2950 2961 2605 2174
0 0 0 0 0 0 0 0 0 0 0 0 0 0 6 6 2 2 46 188 441 220 105 192 352 443 282 313 385 1110 1551 1710 1664 1483 1532 1688 2042 2126 2269 2498 2505 2210 2053 1995 2156 2284 2115 1788 1923 2002 2155 2164 2023 2180 2261 2730 3416 3733 3489 3157 2802 2781 2671 2618 3079 2959 3208 3378 2593 2196 2682 2664 1978 1738 2475 2920 3320 2867 2925 2924 2892 2626 3202 3404 3198 3552
0 0 0 0 0 0 0 0 0 0 0 0 0 0 0 5 5 0 38 93 340 339 256 332 453 266 202 267 748 1032 1040 1281 1539 1589 1730 1959 2046 2299 2284 2230 2361 2288 2330 2334 2378 2158 1756 1724 1738 1974 2150 2079 2097 2121 2185 2465 2556 3294 3599 3478 3139 3035 2900 2698 2974 3023 2815 3362 2879 2522 3330 3015 3091 2866 2821 2574 1488 1480 2482 2862 2630 3733 3938 3803 3610 3348
0 0 0 0 0 0 0 0 0 0 0 0 0 0 0 2 0 1 0 31 258 477 389 184 74 36 17 54 186 934 820 1288 1352 1856 2130 2368 2335 2422 2456 2352 2256 2160 2320 2571 2455 1827 1108 1096 1313 1583 1805 2098 2009 2119 2185 2338 2652 3015 3058 3085 3023 2504 2696 2450 2502 3238 3286 3445 4023 3165 1980 1966 1814 1724 2005 1457 1548 1402 1548 1082 784 3240 3175 3508 3938 3668
0 0 0 0 0 0 0 0 0 0 0 0 0 0 0 0 0 18 0 0 30 35 60 120 131 74 0 0 2 273 667 1180 1629 1864 2156 2464 2595 2468 2445 2118 2022 2026 2172 2577 2385 1917 960 1087 1272 1378 1656 1877 1879 1974 2223 2492 2580 2763 2897 2946 3240 3740 3262 2384 2296 2545 2922 3430 3800 2656 2452 2300 1852 1877 1888 1798 1322 945 2790 3060 2819 3116 3292 3576 3192 2716
0 0 0 0 0 0 0 0 0 0 0 0 0 0 0 0 0 0 0 0 0 0 0 0 7 6 0 0 0 185 221 1257 1812 2059 2058 1972 2534 2244 2204 1850 1828 1934 2048 2458 2562 2127 1512 1162 1112 1282 1692 2018 1716 1763 2178 2470 2488 2676 2734 3036 3690 3600 3152 2236 2220 2546 2869 3879 4361 3214 2692 2310 2371 1971 1700 1893 1836 1808 2894 3239 2358 2483 2710 3256 3272 3068
0 0 0 0 0 0 0 0 0 0 0 0 0 0 0 0 0 0 0 0 0 0 0 1 0 0 0 0 304 282 712 1161 1680 1710 2030 1866 1983 2256 2082 1752 1736 1700 1912 2095 2370 2310 2124 1547 1373 1572 1690 1710 1748 1839 2220 2311 2346 2586 2788 2832 2740 2724 2694 2424 2432 2636 2783 3546 3428 3258 2948 2621 2437 2562 2329 1796 2048 2434 3280 2498 2709 2642 2258 2851 3400 2995
0 0 0 0 0 0 0 0 0 0 0 0 0 0 0 0 0 0 0 2 0 11 10 0 0 0 0 0 38 546 586 802 1069 1256 1186 1871 1986 1964 1982 1816 1636 1714 1769 1786 1927 2124 2240 2092 1697 1297 1368 1607 1923 2010 2050 2108 2291 2530 2785 2845 2914 2696 2581 2562 2648 2914 2948 3207 3543 3230 3482 2842 2652 2601 2300 2151 2531 2864 3081 2652 2475 2607 2682 2395 2552 2754
0 0 0 0 0 0 0 0 0 0 0 0 0 0 0 0 3 4 0 1 0 29 25 2 0 0 0 0 0 180 553 239 18 20 515 1332 1919 1954 1917 1907 1747 1707 1766 1776 1738 1784 1867 2071 2137 1751 1636 1965 2029 1852 1863 2162 2406 2509 2682 3090 3349 3235 2789 2610 2720 2912 3118 2866 3275 3352 3110 3300 3042 3132 3007 2571 2332 2875 2669 2967 2518 2634 2646 2313 2153 1726
0 0 0 0 0 0 0 0 0 0 0 0 0 0 0 4 0 5 8 6 8 29 6 0 2 2 0 0 0 0 66 29 0 0 0 135 1281 2120 2098 1846 1726 1679 1762 1940 1776 1572 1577 1833 1860 1785 1652 1640 1838 1760 1716 2009 2611 2494 2535 2790 3140 3600 3583 3153 2964 2894 3056 2715 2952 3242 3351 3232 3158 3110 2952 2866 2712 2405 2465 2597 2481 2264 2158 2183 1859 1882
0 0 0 0 0 0 0 0 0 0 0 0 0 0 0 16 19 20 19 6 9 6 3 0 0 1 0 16 0 0 0 0 0 0 0 0 557 1831 2266 1982 1902 1761 1848 2009 1956 1674 1500 1638 1707 1555 1500 1819 2134 2241 2196 2440 2278 2294 2587 2849 3153 3502 3573 3630 3540 3614 3558 3087 2789 3104 3367 3196 3301 3248 3049 2759 2615 2463 2475 2546 2271 2148 2176 2302 2204 2006
0 0 0 0 0 0 0 0 0 0 0 0 0 0 0 10 20 6 5 9 14 1 0 0 0 0 0 15 7 0 2 9 0 0 0 0 0 451 2188 2361 2066 1967 1868 1884 1982 1802 1575 1644 1712 1710 1478 1770 2271 2788 2743 2738 2438 2244 2430 2871 3076 3502 3696 3974 4218 3876 3842 3501 3177 3320 3476 3333 3239 3136 3030 2938 2630 2516 2502 2486 2363 1986 1852 2239 2153 1756
0 0 0 0 0 0 0 0 0 0 0 0 0 0 0 2 14 11 10 24 2 1 2 0 0 0 0 0 12 36 34 12 0 0 2 0 214 380 1445 2355 2233 2234 2015 1980 1926 2021 1496 1488 1741 1741 1680 2063 2645 2221 2164 2642 2570 2372 2536 2947 3246 3556 3769 3825 4278 4345 4036 4009 3752 3541 3481 3466 3338 3182 2968 2914 2691 2360 2325 2196 2036 2176 1935 1802 1488 1461
0 0 0 0 0 0 0 0 0 0 0 0 0 0 0 0 0 3 18 16 26 9 9 6 0 2 0 0 63 70 27 8 0 0 0 58 977 1063 782 1782 2005 2148 2046 2018 2077 2085 1636 1549 1832 1827 2091 2337 2537 2384 2056 2505 2882 2378 2630 3505 4003 4238 3856 3619 4362 4706 4583 4604 4136 3926 3809 3768 3671 3478 2987 2883 2934 2875 2502 2565 2254 2186 2304 2017 1677 1568
0 0 0 0 0 0 0 0 0 0 0 0 0 0 0 0 0 12 7 18 34 23 4 19 0 2 0 0 15 44 27 11 2 5 0 32 413 1092 1074 1363 1795 1836 2016 2026 2019 1770 1934 1834 2056 2094 2149 1954 1906 2118 2309 2556 3082 3140 2948 3505 4348 4648 4026 3781 4339 4552 4574 4738 4513 4191 4068 3961 3734 3633 3197 2710 2870 2741 2638 2491 2599 2232 2420 2168 1913 1612
0 0 0 0 0 0 0 0 0 0 0 0 0 0 0 0 0 14 13 29 29 6 2 0 5 15 0 0 5 0 0 0 0 0 0 0 216 1022 1153 1400 1747 1754 1924 2176 2176 2096 2075 2014 2219 2070 1710 1722 1812 1984 2410 2694 3161 3683 3614 3712 4145 4437 4176 3754 4315 4845 4810 4841 4808 4506 4528 4656 4037 3472 3128 2763 2604 2528 2459 2756 3082 2221 2520 2370 2000 1690
0 0 0 0 0 0 0 0 0 0 0 0 0 0 0 0 0 0 16 12 19 5 0 0 6 19 0 0 2 0 0 0 0 0 0 0 84 918 1050 1430 1649 1660 1740 2095 2186 2244 2289 2192 2283 2180 1426 1381 1833 2190 2495 3050 3396 3720 3957 3785 3186 3603 3870 4020 3913 4563 5182 5322 5104 4663 4683 4680 4526 3930 3373 2986 2612 2646 2806 2624 3059 2208 2349 2644 2201 2040
0 0 0 0 0 0 0 0 0 0 0 0 0 0 0 0 0 5 0 0 5 10 3 0 1 8 0 0 1 0 1 0 1 0 4 1 81 995 1054 1276 1610 1766 1720 1830 2018 2368 2495 2240 1875 1628 1262 1132 1362 2167 2572 2936 3004 2880 3469 3894 3469 2992 3942 4024 3716 4516 5152 5058 4908 5018 5036 5054 4728 4440 3985 3730 3590 3351 3299 3403 3179 3258 2935 2977 2408 2000
0 0 0 0 0 0 0 0 0 0 0 0 0 0 0 0 0 0 2 0 0 0 1 2 0 0 0 0 0 0 0 0 0 0 7 9 0 20 1210 1290 1489 1914 1879 1924 1981 2260 2549 2258 1578 1096 1352 1186 1305 2137 2460 2274 2566 2437 2586 3182 3436 3258 3572 3834 3998 4416 5130 4957 4981 5011 5189 4906 4826 4541 4436 4533 4508 4105 3738 3841 3584 3187 3020 2662 2205 1758
0 0 0 0 0 0 0 0 0 0 0 0 0 0 0 0 0 0 10 5 0 0 0 0 0 0 8 0 0 0 0 0 0 0 0 0 1 8 81 1510 1516 1922 2140 2169 2164 2024 2048 2238 1836 1211 1359 1456 1363 1895 2478 2096 2164 2321 2347 2530 3177 3078 3283 3364 3952 4405 5149 5116 4920 5013 5155 5074 5138 4981 4878 4646 4449 4128 4035 3528 2987 2698 2575 2167 2057 1806
0 0 0 0 0 0 0 0 0 0 0 0 0 0 0 0 0 0 0 4 0 0 0 0 0 0 0 0 0 0 0 0 0 0 0 0 1 0 26 1031 1806 2281 2410 2282 2246 2003 1872 2023 2154 1691 1561 1926 1848 2111 2458 2462 2135 2314 2452 2374 2966 3320 3235 3070 3306 4320 5332 5111 4893 4932 5204 5157 4914 4684 4572 4447 4333 3689 3101 2887 2450 2252 2106 1466 1186 1356
0 0 0 0 0 0 0 0 0 0 0 0 0 0 0 0 0 0 0 0 0 0 4 6 6 0 0 24 2 0 0 0 0 0 0 0 4 0 137 1624 2103 2550 2829 2458 2140 1913 1957 1823 2135 2714 2501 2854 2767 2744 2767 2932 2860 2499 2651 2839 3008 3475 3504 3313 2995 3988 5094 5072 4926 5118 5238 4663 4608 4352 4007 3822 3470 3096 2659 2358 1980 1966 1874 896 466 764
0 0 0 2 0 0 0 0 0 0 0 0 0 0 0 0 0 0 3 0 0 14 2 6 0 0 0 10 144 233 41 0 0 0 0 202 558 512 1368 2791 2180 2568 2668 2296 2195 2068 1846 1652 2043 2867 3078 3605 3464 3058 3150 3164 3313 2949 3005 3194 3180 3381 3552 3578 3113 3128 4574 4932 4798 5064 5148 4745 4258 3984 3784 3195 2842 2618 2003 1930 2554 2031 1209 426 410 468
0 0 0 0 0 0 0 0 0 0 0 0 0 0 0 0 0 0 0 0 0 21 22 17 0 6 2 12 0 0 0 0 0 0 0 0 331 757 668 3318 3355 2820 3018 2760 2413 2220 2162 2604 3048 3500 3746 4125 3870 3455 3630 3808 3647 3491 3570 3725 3581 3508 3707 3751 3603 3141 3750 4565 4648 5308 4702 3889 3480 3356 2674 2685 2496 1930 1109 1405 1599 2130 1340 365 379 238
0 0 0 0 0 0 0 0 0 0 0 0 0 0 0 0 0 0 0 0 0 5 0 0 11 36 11 1 0 0 0 0 0 0 0 0 890 1639 3255 3539 3150 3000 3042 2699 2747 2706 3122 3474 3819 4148 4556 4498 3934 3834 3872 3907 3889 3771 4034 4070 3781 3801 3956 4083 3989 3888 3586 4255 4754 5533 4548 3618 3186 2870 2741 2844 2446 1282 892 700 389 430 704 244 36 97
0 0 0 0 0 0 0 0 0 0 0 0 0 0 0 0 0 0 0 0 0 12 4 0 38 9 2 18 0 0 0 0 0 0 0 0 0 215 2156 3792 2481 2753 2762 2968 3058 3114 3456 3956 4520 4906 4946 4538 4329 4378 4374 4206 3905 3960 4262 4252 3996 3858 3984 4140 4274 4310 4425 4885 4613 5520 4199 3437 3301 2873 2764 2470 2892 1048 177 214 131 375 686 287 205 439
30 0 0 0 0 0 0 0 0 0 0 0 0 0 0 0 0 0 0 0 0 0 0 2 92 0 0 0 0 0 0 0 0 0 0 0 0 0 1830 3403 2594 2415 2746 2793 3293 3668 4033 4419 4675 4731 4824 4684 4394 4484 4507 4518 4410 4397 4495 4310 4256 3985 4020 4214 4545 4872 4858 4958 4793 4535 3636 3249 2992 2762 2527 2620 2318 804 140 83 116 427 619 692 394 280
68 136 90 0 0 0 0 0 0 0 0 0 0 0 0 0 0 0 0 0 0 0 0 0 21 0 0 0 0 0 0 0 0 0 0 0 0 47 1872 3428 2552 2494 2468 2576 3087 3499 3880 4120 4681 5027 5070 5037 4720 4842 4576 4659 4772 4661 4669 4536 4441 4337 4082 4235 4590 4962 4578 4334 3856 3488 3471 3212 2852 2542 2374 2430 2298 1183 455 176 320 735 662 458 259 83
150 236 108 24 34 9 0 0 0 0 0 0 0 0 0 0 0 0 0 0 0 0 0 0 0 0 0 0 0 0 0 0 0 0 0 0 0 0 839 2465 2517 2438 2412 2616 3040 3318 3808 4023 4357 4896 5008 5070 4991 5011 4852 5014 4948 4842 4504 4434 4430 4710 4360 4364 4800 5044 4647 4016 3455 3216 2994 2775 2606 2280 2168 2218 2260 2040 1546 1198 534 126 318 322 132 1
8 28 18 56 54 33 9 0 0 0 0 0 0 0 0 0 0 0 0 0 0 0 0 0 0 0 0 0 0 0 0 0 0 0 0 0 0 65 1634 2468 2569 3032 2754 2677 2926 3216 3668 3634 4175 4788 4980 4949 4992 5159 5153 5236 5149 4972 4489 4566 4538 4596 4539 4508 4844 4715 4722 4387 3788 3641 3499 3279 2943 2852 2789 2720 2638 2361 1724 1346 784 512 622 514 249 103
169 34 58 129 62 86 18 0 0 0 0 0 0 0 0 0 0 0 0 0 0 0 0 0 0 0 0 0 0 0 0 0 0 0 0 0 1882 2870 2523 2725 2845 3148 3272 3203 3214 3335 3419 3434 4306 4775 4616 4555 4716 5132 5044 5270 5101 5205 4948 4907 4738 4635 4682 4634 4600 4465 4676 4315 3712 3500 3356 3090 2938 2839 2734 2615 2408 2146 1800 1586 1064 858 682 741 686 444
90 56 62 78 71 123 72 3 0 0 3 2 0 0 0 0 0 0 0 0 0 0 0 0 0 0 0 0 0 0 0 0 0 217 1538 2066 1960 1747 1836 1747 2037 2812 3167 3188 3244 3216 3259 3554 3708 3888 4035 4346 4602 4532 4646 4936 5000 5128 4874 4758 4762 4652 4775 4828 4688 4350 4464 3816 3212 3066 3051 3070 2958 2795 2626 2367 2124 2020 1838 1560 1080 656 478 440 557 586
101 125 30 130 68 118 133 96 18 0 0 0 0 0 0 0 0 0 0 0 0 0 0 0 0 0 0 0 0 0 12 2518 1949 1832 962 954 1344 1061 1174 1294 2270 2498 2541 2954 3426 3166 3089 2912 3124 3595 3662 3746 3620 4060 4489 4597 4778 4866 4616 4815 4650 4760 4903 4855 4718 4640 4160 3442 3032 3021 3168 3297 3073 2874 2686 2470 2157 1930 1730 1303 1095 858 634 453 626 686
182 100 39 48 41 110 123 100 30 7 2 0 0 0 0 0 0 0 0 0 0 0 0 0 0 0 0 0 0 820 1655 1040 975 1163 1257 859 947 900 637 683 1428 2011 2117 2548 2895 3144 3156 3062 3338 3333 3488 3538 3984 3886 3898 4045 4186 4178 4350 4583 4820 4823 4942 4959 4752 4131 3875 3332 2938 3145 3267 3272 3137 2904 2708 2478 2166 1876 1480 1148 1015 913 874 612 546 462
1 6 18 105 46 143 221 104 28 17 0 0 15 28 0 0 0 0 0 0 0 0 0 0 0 0 0 0 410 475 493 200 288 374 571 387 749 802 550 794 1220 1738 1919 2351 2320 3037 3143 3034 3086 3067 3089 3227 3438 3494 3416 3474 3384 3354 3570 4199 4675 5068 5039 5002 4617 4093 3650 3146 2736 3072 3166 3204 3094 2930 2522 2371 2258 1890 1308 986 1002 1198 1237 961 516 607
91 48 4 37 71 72 147 155 55 66 15 70 95 503 494 372 417 600 715 0 0 0 0 0 0 0 0 208 580 376 332 224 66 0 796 954 874 909 694 968 1403 2249 2370 2580 3291 3195 2925 2553 2336 2650 2670 3216 3009 2687 2596 2758 3049 3508 3937 4376 4722 4732 4816 4873 4347 3722 3386 2896 2387 2825 2977 2917 2727 2696 2370 2287 2205 1754 1256 1300 1385 1368 1234 1045 732 580
80 40 198 0 28 27 73 49 72 39 206 1158 762 407 424 354 351 649 208 0 0 0 0 0 0 0 26 355 632 398 174 6 12 138 1660 1605 1257 1040 932 901 1026 1684 2244 2600 2510 2254 2135 2430 2715 2719 3130 3228 2547 2930 3049 3382 3749 4084 4475 4489 4580 4712 4664 4373 4040 3530 3235 2908 2310 2464 2516 2486 2384 2241 2251 2224 2128 1529 1219 1223 1217 1178 1163 1061 972 894
312 149 8 2 0 72 65 58 50 6 32 826 449 304 365 306 315 320 160 0 35 271 369 206 0 134 502 539 477 416 138 14 1 1372 1122 1678 1806 1982 1871 1680 1861 1999 2149 2370 2294 2735 3316 3289 3113 3194 3318 3140 3988 4078 4202 4239 4384 4406 4542 4428 4449 4349 4159 4035 3808 3560 3186 2668 2362 2146 2206 2004 1862 1986 2056 2106 1872 1520 1030 898 902 929 990 934 887 766
22 4 0 2 18 16 0 0 16 116 782 665 396 27 377 408 597 460 8 0 1058 888 809 727 457 672 805 648 600 248 975 1700 2018 1633 1748 1686 2270 2369 2142 2073 2221 2395 2607 2844 3056 3104 3641 3556 3139 2342 2278 4412 4520 4412 4748 4660 4607 4558 4493 4303 3987 3764 3713 3764 3608 3225 2909 2567 2186 2072 1916 1941 1812 1840 2030 2171 1827 1222 847 687 866 859 847 664 533 600
131 71 6 3 6 0 6 3 9 162 311 106 474 74 472 451 415 223 1399 825 1360 1281 910 842 590 764 904 959 258 1762 1782 1838 1906 1962 2088 2212 2309 2499 2466 2462 2531 2725 2945 3147 3196 2547 1822 1592 2391 2774 3757 4720 4670 4748 4840 4776 4790 4698 4227 3867 3507 3379 3583 3583 3496 3173 2782 2494 2140 2120 1940 1860 1833 1910 1958 1966 1950 1375 728 540 499 373 324 200 194 210
90 124 42 0 20 37 152 85 56 12 541 372 389 384 644 420 1000 930 1002 1300 966 1039 1008 987 964 988 1370 1599 1697 1720 1554 1500 1853 2112 2284 2378 2187 1918 1868 1946 1988 1887 2096 2288 2296 1882 1516 2035 2579 3208 4002 4126 4220 4285 4560 4497 4817 4438 4152 3960 3623 3524 3756 3596 3419 3137 2776 2464 2160 2130 2279 2074 1726 1624 1779 1686 1622 1334 617 383 205 188 126 55 55 124
158 3 0 26 92 33 98 113 22 388 402 405 461 698 1004 684 691 748 1006 1188 1062 1360 1456 1257 1336 1310 1188 1184 1099 974 953 1082 1278 1501 1162 878 888 1212 1465 1208 1032 966 663 563 574 840 1820 3755 4188 3931 3559 3267 3020 3367 3796 4922 4794 4554 4510 4372 4036 3838 3713 3532 3415 3060 2614 2239 2128 2258 2066 1896 1555 1688 1658 1573 1476 1126 482 346 202 191 122 90 122 272
53 0 6 158 374 133 276 246 541 352 298 236 418 527 487 363 530 596 780 780 704 803 712 953 1145 1112 1066 1072 926 786 828 839 767 785 918 900 980 1342 1089 541 550 512 479 494 423 650 1030 2782 3628 3162 2728 2692 3202 3963 4645 4714 4477 4452 4832 4357 3729 3665 3516 3396 3156 2566 2142 2196 2100 1762 1840 1731 1804 1688 1518 1364 1180 708 434 305 106 209 285 266 338 370
265 434 780 1054 824 447 390 455 202 177 198 140 119 137 190 366 546 668 720 698 735 938 1011 924 613 630 828 818 853 856 1072 1398 1555 1401 1220 1114 1373 1856 2066 2205 1727 904 662 1033 2106 1552 785 1171 1370 1900 2293 2436 2650 2828 3517 3517 3453 4341 3527 3174 3074 3241 3402 3230 2832 2436 2125 2033 1730 1765 1781 1677 1562 1462 1300 1201 722 504 436 303 270 381 506 336 234 248
1034 313 116 305 609 54 76 78 109 188 270 8 15 77 101 290 313 645 724 770 806 865 1106 1422 1506 1332 1269 1698 1606 1282 1210 1237 1460 1714 1913 2002 2105 2259 2250 2258 2215 2391 2134 1891 2445 2194 1069 764 1124 1541 1826 2022 1974 1812 1950 2619 3296 3473 3168 3163 3243 3037 2856 2731 2555 2240 2094 1870 1760 1448 1277 1536 1679 1664 1350 973 790 656 555 417 501 524 694 529 418 411
538 509 643 440 218 112 532 201 91 18 112 1 27 73 108 24 32 229 384 590 604 522 610 804 1060 1218 1332 1323 1471 1552 1415 1130 1110 1294 1421 1686 1882 2055 2320 2384 2440 2338 2240 2307 2520 2447 1718 1049 1036 1500 2046 2504 2407 2362 2214 2314 2565 2787 2838 2796 2762 2710 2514 2346 2139 1960 1953 1799 1589 1364 1596 1727 1734 1711 1630 1330 998 844 650 460 509 560 644 613 508 464
5 314 688 250 99 853 387 54 2 0 0 6 52 18 94 22 27 39 128 36 38 53 74 100 77 63 299 354 493 649 688 687 614 706 848 1231 1665 1983 2149 2093 2177 2499 2486 2240 2394 2351 2000 1720 1568 1752 2081 2267 2400 2499 2812 2801 2742 2769 2734 2743 2619 2387 2008 1784 1818 1946 1716 1568 1638 1791 1867 1858 1739 1412 1330 1278 1075 886 732 714 764 656 599 1220 922 826
288 480 647 182 332 175 128 16 0 0 0 7 13 45 72 93 111 110 98 96 91 94 68 60 52 51 33 44 49 44 62 22 37 51 66 204 428 863 1356 1530 1457 1597 2049 2219 2249 2352 2448 2267 2094 2029 2154 2314 2376 2434 2468 2466 2339 2311 2432 2641 2716 2631 2596 2445 2278 2126 2054 2017 2071 2069 1825 1630 1351 1227 1241 1147 862 720 476 173 0 0 0 101 0 0
25 167 71 508 39 27 169 59 513 447 2 19 4 0 2 62 84 110 106 119 110 86 58 32 22 38 30 15 12 12 12 2 1 0 6 26 20 52 259 678 998 1014 1198 1736 2049 2081 2374 2700 2431 2388 2366 2382 2363 2194 2148 2240 2151 2158 2196 2629 2733 2582 2490 2400 2166 2028 1804 1743 1590 1511 1419 1311 947 966 911 829 634 531 376 0 0 0 0 0 0 0
Wind_Speed
nan nan nan nan nan nan nan nan nan nan nan nan nan nan nan nan nan nan nan 15 9 11 9 nan 11 10 9 4 4 4 2 6 8 9 9 9 8 9 8 8 8 8 8 6 8 9 10 10 7 6 5 5 5 5 6 6 6 6 6 7 8 6 7 6 4 4 4 3 3 2 4 5 5 5 5 4 6 7 6 8 9 11 11 12 10 8
nan nan nan nan nan nan nan nan nan nan nan nan nan nan nan nan nan nan nan 15 15 15 11 12 12 11 11 10 7 4 2 4 6 8 10 10 9 7 8 9 9 7 4 6 6 9 9 8 10 7 5 6 8 7 7 7 7 7 7 7 6 6 6 6 5 3 3 2 1 2 2 4 3 3 4 4 4 8 7 8 6 9 10 13 15 14
nan nan nan nan nan nan nan nan nan nan nan nan nan nan nan nan nan nan nan 19 20 20 16 13 13 14 13 12 9 5 4 4 5 7 8 9 10 8 8 8 8 8 7 8 8 9 10 12 11 8 6 6 7 8 8 8 7 7 7 7 7 6 5 5 4 3 2 2 1 2 2 2 0 1 2 2 4 7 11 10 9 7 13 15 15 16
nan nan nan nan nan nan nan nan nan nan nan nan nan nan nan nan nan nan nan 19 16 18 17 14 15 16 13 12 12 8 6 5 5 6 6 7 8 9 10 9 9 10 10 11 12 12 12 13 11 9 8 7 7 7 7 7 7 6 6 7 9 8 6 4 4 2 3 1 1 2 0 1 2 4 7 6 9 12 10 11 13 13 13 14 14 15
nan nan nan nan nan nan nan nan nan nan nan nan nan nan nan nan nan nan nan nan 17 17 21 19 18 17 14 12 12 12 11 7 5 4 4 5 5 6 7 9 10 11 12 12 13 13 14 14 14 12 10 9 8 8 7 7 7 6 8 8 8 8 6 5 4 3 2 4 3 4 8 6 8 6 7 9 8 11 15 16 18 18 17 19 18 21
nan nan nan nan nan nan nan nan nan nan nan nan nan nan nan nan nan nan nan nan 23 22 18 18 nan nan nan nan 10 13 14 10 4 3 3 2 3 5 7 9 9 10 12 13 14 14 15 14 13 12 12 10 9 8 8 8 8 7 6 6 6 6 6 5 5 4 4 4 6 6 6 7 7 7 9 10 11 13 14 15 17 23 22 24 24 24
nan nan nan nan nan nan nan nan nan nan nan nan nan nan nan nan nan nan nan nan nan nan nan 21 21 nan nan nan nan 13 7 7 7 3 2 2 3 5 5 7 9 10 11 13 12 13 15 14 14 13 12 11 10 9 8 8 7 7 6 5 5 6 6 6 5 5 6 5 6 8 8 8 8 8 10 11 13 15 17 18 20 23 23 25 25 26
nan nan nan nan nan nan nan nan nan nan nan nan nan nan nan nan nan nan nan nan nan nan nan nan nan nan nan nan nan 14 12 9 5 4 1 2 3 5 6 7 9 9 10 11 12 13 13 14 14 14 13 12 11 10 9 9 8 7 7 7 5 5 6 6 6 6 7 8 8 8 8 10 10 11 12 15 16 18 19 21 21 22 22 24 23 22
nan nan nan nan nan nan nan nan nan nan nan nan nan nan nan nan nan nan nan nan nan nan nan nan nan nan nan nan 20 17 11 7 7 6 5 3 3 4 6 7 9 10 10 10 11 13 13 14 16 15 14 14 13 11 10 10 9 9 8 8 6 7 8 7 7 8 9 10 9 10 10 12 13 13 15 17 19 21 21 20 20 19 20 21 21 21
nan nan nan nan nan nan nan nan nan nan nan nan nan nan nan nan nan nan nan nan nan nan nan nan nan nan nan nan nan 16 11 11 11 7 4 4 3 3 3 5 7 8 8 10 11 11 13 13 15 16 16 16 14 11 10 10 11 10 10 10 9 9 10 10 9 10 11 12 13 13 13 14 17 18 19 19 20 21 21 19 18 18 19 19 19 19
nan nan nan nan nan nan nan nan nan nan nan nan nan nan nan nan nan nan nan nan nan nan nan nan nan nan nan nan nan 19 15 13 nan nan 8 6 2 3 4 5 6 7 8 9 10 11 12 14 14 16 18 17 16 12 10 10 10 11 11 11 11 11 11 11 11 12 13 14 15 15 15 17 18 21 21 21 20 19 19 18 18 18 18 18 18 18
nan nan nan nan nan nan nan nan nan nan nan nan nan nan nan nan nan nan nan nan nan nan nan nan nan nan nan nan nan nan nan nan nan nan nan 12 7 3 5 5 5 7 8 9 10 11 12 14 15 16 17 18 18 15 13 11 11 11 12 12 12 12 12 13 13 14 15 16 16 16 18 18 19 20 20 19 19 19 18 18 17 18 18 18 18 19
nan nan nan nan nan nan nan nan nan nan nan nan nan nan nan nan nan nan nan nan nan nan nan nan nan nan nan nan nan nan nan nan nan nan nan nan 7 4 6 6 8 9 11 11 10 11 12 13 15 17 18 18 18 17 16 15 13 13 12 13 13 13 14 14 14 15 17 17 17 17 18 18 18 18 18 18 18 18 18 17 17 17 17 18 19 20
nan nan nan nan nan nan nan nan nan nan nan nan nan nan nan nan nan nan nan nan nan nan nan nan nan nan nan nan nan nan nan nan nan nan nan nan nan 11 7 9 12 13 15 15 15 16 13 12 14 16 18 18 18 19 19 18 15 15 14 14 14 14 14 14 14 16 17 17 17 17 18 18 18 18 17 17 17 17 18 18 17 16 17 18 19 19
nan nan nan nan nan nan nan nan nan nan nan nan nan nan nan nan nan nan nan nan nan nan nan nan nan nan nan nan nan nan nan nan nan nan nan nan 10 10 11 12 14 16 18 20 21 21 18 14 14 16 18 18 18 20 20 18 17 15 14 15 15 15 14 14 15 15 16 17 18 18 18 18 18 18 18 17 17 17 19 19 18 17 16 17 17 18
nan nan nan nan nan nan nan nan nan nan nan nan nan nan nan nan nan nan nan nan nan nan nan nan nan nan nan nan nan nan nan nan nan nan nan nan 10 12 14 14 15 17 18 21 23 22 19 17 16 16 17 19 19 21 21 20 17 14 13 14 15 14 13 13 14 15 16 18 18 18 18 18 19 18 19 19 19 19 20 20 19 19 19 19 19 20
nan nan nan nan nan nan nan nan nan nan nan nan nan nan nan nan nan nan nan nan nan nan nan nan nan nan nan nan nan nan nan nan nan nan nan nan 12 14 13 10 12 14 16 19 19 19 21 20 20 20 20 21 22 23 22 20 18 15 13 13 14 14 13 13 14 15 16 18 18 17 17 18 19 20 21 21 21 20 20 20 22 22 22 23 23 23
nan nan nan nan nan nan nan nan nan nan nan nan nan nan nan nan nan nan nan nan nan nan nan nan nan nan nan nan nan nan nan nan nan nan nan nan 14 12 8 7 8 9 13 18 18 20 25 25 26 25 24 25 26 26 23 21 19 16 14 13 13 14 14 14 15 16 16 17 16 16 18 20 21 22 22 22 21 21 20 22 25 25 27 28 27 26
nan nan nan nan nan nan nan nan nan nan nan nan nan nan nan nan nan nan nan nan nan nan nan nan nan nan nan nan nan nan nan nan nan nan nan nan nan 10 7 6 9 11 12 16 20 22 24 26 27 26 27 28 28 25 22 20 19 17 15 14 13 14 14 15 14 14 14 16 15 16 18 20 21 22 22 23 24 25 25 26 28 27 29 31 31 30
nan nan nan nan nan nan nan nan nan nan nan nan nan nan nan nan nan nan nan nan nan nan nan nan nan nan nan nan nan nan nan nan nan nan nan nan nan 12 11 8 9 12 12 15 20 23 23 26 28 29 29 30 30 26 22 22 19 18 15 14 13 12 13 12 12 12 13 15 14 16 17 19 20 23 25 28 28 28 29 29 30 31 33 34 34 34
nan nan nan nan nan nan nan nan nan nan nan nan nan nan nan nan nan nan nan nan nan nan nan nan nan nan nan nan nan nan nan nan nan nan nan nan nan nan 12 10 12 12 11 14 19 23 23 23 26 28 29 29 28 24 21 21 20 15 13 11 11 11 11 11 11 11 12 12 13 15 19 22 24 27 30 33 33 32 31 33 34 33 32 35 36 37
nan nan nan nan nan nan nan nan nan nan nan nan nan nan nan nan nan nan nan nan nan nan nan nan nan nan nan nan nan nan nan nan nan nan nan nan nan nan nan 13 13 12 10 14 18 20 22 22 24 27 28 28 27 24 22 20 17 14 12 9 9 9 8 9 9 8 9 10 13 18 22 26 28 31 33 35 35 36 37 38 38 37 38 40 42 42
nan nan nan nan nan nan nan nan nan nan nan nan nan nan nan nan nan nan nan nan nan nan nan nan nan nan nan nan nan nan nan nan nan nan nan nan nan nan nan 16 13 11 10 14 17 18 20 22 23 26 28 30 29 23 20 18 15 13 12 10 8 8 8 8 7 7 8 11 14 20 23 27 30 31 34 35 35 37 39 42 41 40 43 42 42 47
nan nan nan nan nan nan nan nan nan nan nan nan nan nan nan nan nan nan nan nan nan nan nan nan nan nan nan nan nan nan nan nan nan nan nan nan nan nan 12 9 13 13 11 13 15 18 19 21 24 25 27 30 28 22 19 16 14 13 12 11 8 8 8 8 8 9 12 14 18 21 25 29 31 34 35 34 33 38 41 41 39 41 47 45 39 47
nan nan nan nan nan nan nan nan nan nan nan nan nan nan nan nan nan nan nan nan nan nan nan nan nan nan nan nan 31 22 nan nan nan nan nan 16 14 9 10 14 15 14 13 13 14 16 20 21 24 25 27 30 29 23 19 17 16 15 13 10 8 7 8 8 10 12 15 18 20 23 28 33 35 35 31 31 37 43 43 41 41 42 46 48 45 44
nan nan nan nan nan nan nan nan nan nan nan nan nan nan nan nan nan nan nan nan nan nan nan nan nan nan nan nan nan nan nan nan nan nan nan nan 12 10 12 17 16 16 16 16 14 16 19 20 22 25 28 31 30 25 20 18 17 15 12 9 8 8 9 10 13 15 17 18 21 25 30 32 34 36 36 38 46 52 48 48 48 45 48 53 45 36
nan nan nan nan nan nan nan nan nan nan nan nan nan nan nan nan nan nan nan nan nan nan nan nan nan nan nan nan nan nan nan nan nan nan nan nan 17 16 16 15 15 16 17 18 17 17 19 20 23 26 29 32 30 26 21 19 17 15 13 12 10 10 11 12 15 18 19 22 24 30 33 38 40 39 40 41 47 51 53 52 52 52 53 54 nan nan
nan nan nan nan nan nan nan nan nan nan nan nan nan nan nan nan nan nan nan nan nan nan nan nan nan nan nan nan nan nan nan nan nan nan nan nan nan 19 13 11 13 14 15 19 21 21 20 21 23 27 29 31 30 26 23 19 18 16 15 15 14 14 15 16 19 22 22 23 26 31 37 40 38 39 41 47 48 50 53 52 53 56 56 53 52 50
nan nan nan nan nan nan nan nan nan nan nan nan nan nan nan nan nan nan nan nan nan nan nan nan nan nan nan nan nan nan nan nan nan nan nan nan nan nan 12 8 10 13 16 18 20 24 23 22 23 26 28 29 29 27 25 22 20 19 18 19 19 18 18 20 22 24 24 28 32 36 39 43 43 43 46 46 48 49 50 nan 53 52 53 55 54 51
nan 30 nan nan nan nan nan nan nan nan nan nan nan nan nan nan nan nan nan nan nan nan nan nan nan nan nan nan nan nan nan nan nan nan nan nan nan nan 18 11 9 14 15 18 18 22 25 24 26 26 27 28 28 27 27 24 22 22 22 22 22 21 22 23 24 25 28 35 40 42 46 49 51 52 52 53 51 49 50 51 54 54 53 55 55 nan
30 30 30 nan nan nan nan nan nan nan nan nan nan nan nan nan nan nan nan nan nan nan nan nan nan nan nan nan nan nan nan nan nan nan nan nan nan nan 17 12 10 12 13 15 19 20 24 28 28 27 27 28 27 26 26 25 23 23 23 24 24 25 25 27 29 31 34 39 42 46 50 51 53 55 54 52 52 52 54 57 56 56 57 55 54 nan
nan nan nan nan nan nan nan nan nan nan nan nan nan nan nan nan nan nan nan nan nan nan nan nan nan nan nan nan nan nan nan nan nan nan nan nan nan nan 16 15 16 15 13 15 20 21 25 29 28 27 27 27 27 26 26 26 25 25 26 28 28 28 29 30 32 33 34 37 42 46 50 51 53 53 52 50 49 50 53 57 58 60 61 61 61 59
35 nan nan 35 nan nan nan nan nan nan nan nan nan nan nan nan nan nan nan nan nan nan nan nan nan nan nan nan nan nan nan nan nan nan nan nan 23 22 20 23 26 25 21 19 20 21 25 28 27 25 26 26 27 28 28 29 29 29 31 33 33 33 33 32 31 30 33 39 42 46 50 52 53 54 54 53 53 52 52 54 54 57 60 61 61 61
nan nan nan nan nan 37 nan nan nan nan nan nan nan nan nan nan nan nan nan nan nan nan nan nan nan nan nan nan nan nan nan nan nan 29 31 29 27 25 23 25 27 28 23 18 17 21 26 30 29 29 28 28 29 31 32 32 32 34 36 39 39 38 37 36 34 33 36 42 45 49 52 55 57 58 59 60 58 56 55 56 56 57 58 59 60 60
38 35 nan 41 nan 35 35 nan nan nan nan nan nan nan nan nan nan nan nan nan nan nan nan nan nan nan nan nan nan nan nan 46 43 40 34 32 31 28 26 28 28 27 24 21 21 24 29 29 29 31 32 31 34 37 39 38 37 39 41 42 43 42 42 39 39 39 42 44 47 50 54 58 61 63 63 65 64 61 60 59 58 58 59 60 61 61
38 36 nan nan nan 39 36 nan nan nan nan nan nan nan nan nan nan nan nan nan nan nan nan nan nan nan nan nan nan 52 49 43 40 39 37 35 35 32 29 29 27 24 22 22 23 29 31 29 28 31 34 38 42 41 41 43 42 42 43 44 45 44 44 44 44 44 44 45 48 51 55 59 61 63 64 65 64 64 63 61 59 59 59 59 60 60
nan nan nan 38 nan 36 38 35 nan nan nan nan nan nan nan nan nan nan nan nan nan nan nan nan nan nan nan nan 47 50 48 42 37 36 34 33 34 33 32 33 33 29 26 23 21 26 31 31 30 34 37 38 41 44 45 47 48 47 47 48 48 47 46 47 48 49 49 49 50 53 57 59 61 61 62 64 64 62 62 61 60 59 59 60 61 61
nan nan nan nan nan nan 40 39 nan nan nan nan nan 46 47 45 45 49 43 nan nan nan nan nan nan nan nan 42 46 51 49 40 nan nan 34 35 35 34 35 34 37 36 33 29 31 34 37 35 33 37 39 41 46 50 51 52 55 54 51 52 52 51 50 50 49 51 52 54 55 56 58 59 59 59 61 62 62 61 61 61 61 61 60 61 63 61
nan nan 47 nan nan nan nan nan nan nan 31 47 46 43 43 44 45 46 39 nan nan nan nan nan nan nan nan 36 42 48 46 nan nan 32 42 40 40 40 37 35 34 36 37 34 32 33 36 37 37 39 41 43 53 55 55 57 58 55 51 52 53 55 56 55 53 52 55 57 57 58 59 59 59 60 62 64 64 64 64 62 62 61 61 63 66 63
48 49 nan nan nan nan nan nan nan nan nan 45 43 42 41 43 44 40 34 nan nan 38 38 36 nan 35 37 38 42 44 41 nan nan 41 43 43 43 43 40 39 39 39 38 37 37 39 43 44 42 41 45 50 55 57 58 60 59 57 55 54 55 58 59 58 55 53 54 58 58 59 59 59 60 61 65 67 67 66 65 64 64 63 64 67 66 58
nan nan nan nan nan nan nan nan nan 38 41 45 43 nan 42 40 38 34 nan nan 44 40 43 41 41 41 40 40 41 40 44 45 46 45 41 43 45 46 42 40 40 39 40 41 43 43 44 45 47 49 52 55 57 58 59 60 61 60 58 57 58 60 61 60 55 53 55 58 60 60 59 59 61 64 66 68 67 66 66 66 66 67 69 69 64 57
44 nan nan nan nan nan nan nan nan 42 51 48 40 nan 37 35 33 33 44 40 37 42 40 39 43 45 41 42 45 50 48 42 43 45 44 46 49 49 47 45 44 47 49 48 46 46 49 50 52 53 54 54 56 58 59 60 62 61 60 58 60 61 60 59 57 56 57 60 63 63 60 61 63 64 67 69 67 66 68 70 70 70 69 65 61 57
nan 44 nan nan nan nan 45 nan nan nan 52 51 40 33 37 32 42 44 40 42 43 41 39 42 46 49 51 54 57 53 47 46 48 49 49 50 54 55 54 52 52 53 53 52 53 53 52 53 54 54 53 52 54 55 57 60 61 60 58 58 58 57 57 56 58 59 59 60 62 63 64 66 67 66 68 70 69 69 71 71 68 66 63 nan nan 56
46 nan nan nan nan nan nan 42 nan 48 47 45 41 37 44 44 43 42 41 41 44 44 44 46 50 52 54 56 55 53 50 49 53 54 55 57 60 61 59 56 55 56 56 57 57 56 55 55 54 54 55 55 53 52 53 56 57 57 58 59 56 54 53 54 57 60 61 62 63 64 65 67 68 68 70 72 71 70 69 65 61 59 56 nan 50 47
nan nan nan 38 39 34 38 42 49 49 47 44 43 42 39 42 43 41 42 45 43 44 42 43 47 50 52 53 52 50 50 52 54 55 55 56 57 58 58 57 57 58 58 59 59 56 55 53 53 54 55 54 54 53 51 51 55 59 62 62 60 59 55 52 55 60 63 66 66 66 66 67 66 68 69 70 68 66 62 57 53 51 48 45 42 40
33 35 43 41 46 48 49 47 48 48 46 43 42 42 42 45 46 44 45 45 46 44 42 41 44 47 49 48 50 51 52 51 53 53 54 55 55 56 55 56 58 58 58 59 58 56 54 53 52 53 52 51 51 51 51 51 54 59 60 58 58 55 51 51 57 62 66 67 66 66 66 68 67 67 66 64 60 56 51 48 45 44 42 40 40 40
47 41 33 37 40 nan nan nan 46 47 46 nan nan nan 45 48 49 47 47 46 46 46 45 44 43 46 48 48 50 50 50 50 51 51 52 52 53 54 55 56 56 57 57 57 55 53 52 51 51 50 50 50 50 49 49 52 54 56 54 52 52 52 50 54 60 64 65 65 63 63 64 65 64 63 60 56 52 48 44 43 41 41 40 39 39 39
41 45 36 36 32 28 35 36 nan nan 47 nan nan nan 48 nan nan 53 48 46 46 47 46 45 44 45 47 50 53 52 51 51 53 53 53 53 53 54 55 55 55 56 56 56 55 54 53 53 53 52 52 51 50 50 50 51 50 50 50 51 52 52 53 56 60 62 63 63 62 61 63 61 61 58 53 49 47 45 45 45 42 41 40 39 39 40
nan 35 37 31 nan 37 40 nan nan nan nan nan nan nan nan nan nan nan 54 nan nan nan nan nan nan nan 50 53 54 54 56 57 58 58 56 52 52 53 54 55 56 57 57 57 57 57 58 57 57 55 55 53 50 48 48 48 48 49 51 51 53 54 56 59 60 60 62 62 62 63 61 58 55 52 51 49 48 47 46 44 44 42 42 44 42 42
30 33 36 28 30 29 29 nan nan nan nan nan nan nan nan nan 54 58 nan nan nan nan nan nan nan nan nan nan nan nan nan nan nan nan nan 51 49 51 53 54 57 58 58 57 58 60 60 60 58 57 55 51 46 44 44 46 47 48 50 53 54 55 57 59 59 61 61 61 62 62 58 53 50 51 50 51 51 52 50 48 nan nan nan 48 nan nan
nan 38 nan 31 nan nan 30 nan 35 41 nan nan nan nan nan nan nan 54 55 54 55 nan nan nan nan nan nan nan nan nan nan nan nan nan nan nan nan nan 51 54 55 56 58 59 59 59 60 59 55 50 47 43 41 42 44 46 48 50 51 53 55 55 56 57 58 59 59 58 58 57 52 51 51 50 50 51 51 51 52 nan nan nan nan nan nan nan
Wind_Direction
nan nan nan nan nan nan nan nan nan nan nan nan nan nan nan nan nan nan nan 198 160 150 160 nan 154 165 149 149 153 123 103 87 74 55 54 44 36 33 32 31 35 37 40 22 19 18 14 15 10 7 0 357 359 350 347 348 359 3 355 348 351 339 346 338 335 330 347 15 18 48 55 34 19 36 2 1 353 337 3 10 1 353 356 350 341 15
nan nan nan nan nan nan nan nan nan nan nan nan nan nan nan nan nan nan nan 198 156 147 178 176 163 157 160 158 163 160 120 84 74 68 54 45 32 30 27 20 18 23 28 3 5 12 11 13 9 4 357 354 354 346 345 349 351 350 350 344 335 326 335 328 327 318 335 344 32 31 59 68 46 30 27 15 355 348 346 327 327 352 341 340 347 359
nan nan nan nan nan nan nan nan nan nan nan nan nan nan nan nan nan nan nan 195 173 160 176 193 167 164 166 154 160 154 122 124 77 65 60 44 37 26 16 12 2 3 5 359 0 4 9 7 5 1 1 356 357 347 344 343 346 340 329 325 316 312 319 319 324 313 299 272 11 55 101 103 177 348 325 302 308 283 296 317 329 356 346 347 349 352
nan nan nan nan nan nan nan nan nan nan nan nan nan nan nan nan nan nan nan 199 184 162 182 191 176 187 186 173 154 151 124 128 106 73 71 62 41 24 12 357 353 360 355 358 357 1 5 3 0 356 353 351 346 344 342 340 342 319 319 325 318 312 317 303 305 286 294 295 41 352 315 286 221 227 250 248 307 310 320 324 318 351 338 328 323 317
nan nan nan nan nan nan nan nan nan nan nan nan nan nan nan nan nan nan nan nan 199 180 186 203 194 197 198 189 186 173 144 136 124 106 86 74 50 28 10 2 355 355 346 348 353 357 359 3 2 356 347 342 342 339 341 337 333 314 342 342 332 312 311 298 292 306 307 302 319 304 289 280 291 315 318 319 332 327 322 323 331 324 316 316 314 314
nan nan nan nan nan nan nan nan nan nan nan nan nan nan nan nan nan nan nan nan 208 198 204 203 nan nan nan nan 179 207 180 144 147 110 67 37 40 22 16 2 353 355 340 340 346 351 355 356 354 354 349 345 335 330 331 333 342 347 338 346 334 307 290 293 307 309 295 290 279 305 307 305 313 316 312 317 316 315 315 315 306 308 316 310 309 307
nan nan nan nan nan nan nan nan nan nan nan nan nan nan nan nan nan nan nan nan nan nan nan 219 206 nan nan nan nan 237 196 163 185 129 74 324 359 19 10 359 357 351 337 333 339 341 348 349 347 348 342 340 332 321 316 321 330 339 331 325 308 286 275 279 289 313 292 291 294 316 308 302 303 303 302 301 303 301 298 300 305 302 304 306 308 307
nan nan nan nan nan nan nan nan nan nan nan nan nan nan nan nan nan nan nan nan nan nan nan nan nan nan nan nan nan 238 192 189 184 205 213 282 346 17 7 8 360 352 346 329 335 338 340 341 342 340 332 324 324 318 317 318 315 318 314 310 311 276 272 279 285 302 295 290 294 298 299 297 304 307 303 301 302 303 301 301 302 302 304 306 306 306
nan nan nan nan nan nan nan nan nan nan nan nan nan nan nan nan nan nan nan nan nan nan nan nan nan nan nan nan 232 248 244 247 266 260 275 308 344 4 10 18 9 359 353 343 327 331 333 336 336 330 326 321 321 324 323 312 302 299 300 305 300 291 283 284 306 298 302 294 288 287 286 295 295 296 295 298 302 302 303 305 305 310 310 309 311 312
nan nan nan nan nan nan nan nan nan nan nan nan nan nan nan nan nan nan nan nan nan nan nan nan nan nan nan nan nan 246 243 261 263 261 281 323 350 353 348 16 11 350 347 349 342 329 328 329 330 326 321 320 319 321 313 304 299 302 296 301 306 300 284 286 299 298 302 299 288 290 293 300 297 297 299 301 302 306 307 311 314 314 312 312 312 313
nan nan nan nan nan nan nan nan nan nan nan nan nan nan nan nan nan nan nan nan nan nan nan nan nan nan nan nan nan 253 264 256 nan nan 242 251 277 313 328 341 335 340 342 337 337 331 325 322 322 320 324 319 317 310 307 302 302 301 299 297 301 299 289 293 296 300 302 296 294 294 300 303 304 307 307 307 311 312 310 312 317 315 311 308 309 311
nan nan nan nan nan nan nan nan nan nan nan nan nan nan nan nan nan nan nan nan nan nan nan nan nan nan nan nan nan nan nan nan nan nan nan 242 222 240 274 289 316 322 320 321 321 325 320 318 323 320 323 320 317 313 308 300 293 292 290 289 294 297 298 294 297 302 302 299 299 302 306 308 307 310 309 315 317 316 316 316 314 311 307 304 304 303
nan nan nan nan nan nan nan nan nan nan nan nan nan nan nan nan nan nan nan nan nan nan nan nan nan nan nan nan nan nan nan nan nan nan nan nan 257 240 264 287 277 282 295 294 297 299 305 315 319 323 321 319 319 314 312 305 301 295 291 295 297 301 303 301 304 305 305 303 304 306 310 311 307 311 315 317 318 316 315 312 310 306 303 300 301 300
nan nan nan nan nan nan nan nan nan nan nan nan nan nan nan nan nan nan nan nan nan nan nan nan nan nan nan nan nan nan nan nan nan nan nan nan nan 244 256 268 273 281 291 291 288 290 295 304 313 316 316 318 318 322 316 311 306 297 295 302 306 307 307 306 305 305 307 310 310 311 312 312 310 314 316 317 317 316 311 309 306 303 300 298 300 301
nan nan nan nan nan nan nan nan nan nan nan nan nan nan nan nan nan nan nan nan nan nan nan nan nan nan nan nan nan nan nan nan nan nan nan nan 226 219 235 257 275 289 294 292 297 302 307 309 314 313 316 321 327 332 330 322 318 309 305 305 311 313 313 310 307 305 311 308 314 315 315 315 313 316 317 316 314 313 312 310 307 301 295 291 292 295
nan nan nan nan nan nan nan nan nan nan nan nan nan nan nan nan nan nan nan nan nan nan nan nan nan nan nan nan nan nan nan nan nan nan nan nan 211 225 238 260 270 281 296 305 312 313 315 316 319 322 326 331 334 340 339 336 329 327 315 308 310 312 311 309 310 311 310 310 311 319 322 322 319 313 315 313 310 309 309 308 304 299 295 289 286 290
nan nan nan nan nan nan nan nan nan nan nan nan nan nan nan nan nan nan nan nan nan nan nan nan nan nan nan nan nan nan nan nan nan nan nan nan 196 226 251 282 289 291 316 331 331 319 318 320 329 336 337 338 342 342 342 338 333 332 321 310 309 307 309 315 314 313 310 312 315 320 323 323 322 321 321 317 317 315 310 308 305 303 300 298 298 300
nan nan nan nan nan nan nan nan nan nan nan nan nan nan nan nan nan nan nan nan nan nan nan nan nan nan nan nan nan nan nan nan nan nan nan nan 201 227 259 322 332 332 338 336 334 327 324 328 337 340 340 343 343 345 344 340 329 320 317 314 309 309 318 316 309 311 313 314 316 318 322 323 323 320 320 317 315 311 310 310 308 309 306 307 307 307
nan nan nan nan nan nan nan nan nan nan nan nan nan nan nan nan nan nan nan nan nan nan nan nan nan nan nan nan nan nan nan nan nan nan nan nan nan 213 242 311 334 337 331 325 326 322 323 327 332 335 342 343 344 343 343 335 325 317 318 318 321 322 317 312 306 310 305 307 303 312 320 325 321 318 317 317 316 315 315 316 311 312 308 307 306 305
nan nan nan nan nan nan nan nan nan nan nan nan nan nan nan nan nan nan nan nan nan nan nan nan nan nan nan nan nan nan nan nan nan nan nan nan nan 203 221 257 292 302 316 321 316 313 317 326 330 334 338 342 343 341 341 341 335 336 327 321 324 320 307 309 318 311 310 312 317 316 319 325 322 318 318 317 319 322 321 316 310 306 305 306 306 303
nan nan nan nan nan nan nan nan nan nan nan nan nan nan nan nan nan nan nan nan nan nan nan nan nan nan nan nan nan nan nan nan nan nan nan nan nan nan 210 236 258 280 300 312 312 312 316 321 325 330 332 334 336 336 339 344 347 343 335 334 329 319 319 327 327 321 317 320 326 327 329 330 329 327 322 320 321 322 319 309 302 299 297 297 296 294
nan nan nan nan nan nan nan nan nan nan nan nan nan nan nan nan nan nan nan nan nan nan nan nan nan nan nan nan nan nan nan nan nan nan nan nan nan nan nan 223 241 257 282 301 310 316 314 312 316 322 320 322 331 337 342 346 349 351 355 347 325 325 333 345 337 333 327 326 329 339 339 336 332 326 321 321 319 315 308 304 300 293 287 290 288 286
nan nan nan nan nan nan nan nan nan nan nan nan nan nan nan nan nan nan nan nan nan nan nan nan nan nan nan nan nan nan nan nan nan nan nan nan nan nan nan 203 237 259 287 295 296 301 306 305 303 307 313 319 327 332 336 340 350 356 2 356 333 345 3 14 4 344 333 334 341 348 343 337 331 323 319 319 317 312 304 301 301 294 289 282 279 280
nan nan nan nan nan nan nan nan nan nan nan nan nan nan nan nan nan nan nan nan nan nan nan nan nan nan nan nan nan nan nan nan nan nan nan nan nan nan 216 221 252 268 289 297 286 280 285 292 294 294 307 311 316 323 328 326 333 343 349 355 354 5 12 15 9 350 343 342 344 345 341 342 325 319 320 320 313 306 294 296 299 294 290 287 277 275
nan nan nan nan nan nan nan nan nan nan nan nan nan nan nan nan nan nan nan nan nan nan nan nan nan nan nan nan 233 212 nan nan nan nan nan 200 198 213 241 251 260 278 295 308 296 284 281 288 296 297 302 304 310 320 318 314 316 326 336 343 348 345 353 357 354 349 343 341 337 336 334 334 321 314 314 307 303 303 297 296 300 297 300 303 291 275
nan nan nan nan nan nan nan nan nan nan nan nan nan nan nan nan nan nan nan nan nan nan nan nan nan nan nan nan nan nan nan nan nan nan nan nan 183 197 228 251 266 283 295 302 297 292 293 290 291 291 296 298 307 315 313 308 310 312 313 318 317 325 328 339 337 340 338 332 327 321 323 325 312 296 284 290 299 302 297 294 300 308 315 315 308 297
nan nan nan nan nan nan nan nan nan nan nan nan nan nan nan nan nan nan nan nan nan nan nan nan nan nan nan nan nan nan nan nan nan nan nan nan 195 199 231 257 272 280 286 294 296 290 283 285 295 296 295 296 302 307 307 308 306 301 296 296 298 301 309 318 320 316 328 334 323 309 313 318 314 302 288 289 296 296 292 293 301 308 313 321 nan nan
nan nan nan nan nan nan nan nan nan nan nan nan nan nan nan nan nan nan nan nan nan nan nan nan nan nan nan nan nan nan nan nan nan nan nan nan nan 185 204 261 280 277 278 281 289 295 297 295 291 290 293 295 295 300 299 299 298 295 291 288 289 299 303 301 306 312 322 314 303 304 311 309 304 304 305 310 305 297 294 300 310 314 317 324 333 338
nan nan nan nan nan nan nan nan nan nan nan nan nan nan nan nan nan nan nan nan nan nan nan nan nan nan nan nan nan nan nan nan nan nan nan nan nan nan 197 240 276 283 285 288 292 292 289 287 287 290 292 292 295 299 299 293 294 290 286 285 287 293 300 297 303 312 311 292 288 293 297 294 299 302 296 294 297 298 302 nan 315 319 325 335 341 342
nan 237 nan nan nan nan nan nan nan nan nan nan nan nan nan nan nan nan nan nan nan nan nan nan nan nan nan nan nan nan nan nan nan nan nan nan nan nan 185 205 245 269 283 291 290 290 290 288 282 284 287 289 294 296 295 291 293 292 289 287 288 291 294 294 300 304 300 295 294 298 298 301 305 304 305 310 315 317 315 314 321 329 333 337 342 nan
234 242 244 nan nan nan nan nan nan nan nan nan nan nan nan nan nan nan nan nan nan nan nan nan nan nan nan nan nan nan nan nan nan nan nan nan nan nan 171 187 216 248 266 278 275 275 278 279 279 283 288 290 292 292 289 288 287 286 288 285 287 288 291 294 296 300 298 297 299 300 303 307 310 311 315 317 317 317 320 322 325 329 332 333 334 nan
nan nan nan nan nan nan nan nan nan nan nan nan nan nan nan nan nan nan nan nan nan nan nan nan nan nan nan nan nan nan nan nan nan nan nan nan nan nan 180 191 205 221 240 262 266 264 266 273 279 287 291 291 288 284 280 279 281 283 286 286 287 288 290 295 299 303 302 304 299 302 306 311 313 314 317 316 314 317 323 326 328 328 329 330 333 334
231 nan nan 239 nan nan nan nan nan nan nan nan nan nan nan nan nan nan nan nan nan nan nan nan nan nan nan nan nan nan nan nan nan nan nan nan 214 208 201 206 209 208 220 237 250 253 259 269 275 275 272 272 273 274 275 274 276 280 281 281 281 282 288 296 304 308 309 308 314 312 313 315 314 313 314 314 316 320 323 326 328 328 328 329 329 328
nan nan nan nan nan 237 nan nan nan nan nan nan nan nan nan nan nan nan nan nan nan nan nan nan nan nan nan nan nan nan nan nan nan 239 230 217 210 207 205 210 213 211 213 221 238 251 254 256 259 258 259 260 264 267 267 267 269 271 274 276 279 283 286 295 300 305 307 312 321 320 319 318 316 315 317 319 320 321 322 324 326 327 327 326 324 324
235 235 nan 239 nan 239 239 nan nan nan nan nan nan nan nan nan nan nan nan nan nan nan nan nan nan nan nan nan nan nan nan 236 231 228 221 212 206 200 200 210 216 213 209 217 233 249 255 256 254 255 257 260 263 263 264 265 267 270 274 277 281 282 285 290 294 296 301 311 321 320 319 318 317 317 320 322 323 323 325 325 324 325 324 323 323 322
235 235 nan nan nan 239 238 nan nan nan nan nan nan nan nan nan nan nan nan nan nan nan nan nan nan nan nan nan nan 239 240 237 230 225 218 209 203 196 196 205 212 208 206 220 238 249 254 256 261 265 261 256 259 262 264 267 269 272 275 279 282 285 287 291 294 298 302 308 313 313 315 315 315 316 318 321 322 323 325 324 323 323 322 320 319 318
nan nan nan 238 nan 241 241 242 nan nan nan nan nan nan nan nan nan nan nan nan nan nan nan nan nan nan nan nan 242 241 240 239 231 222 216 208 205 197 196 203 208 209 211 219 230 247 256 260 261 262 261 261 262 264 266 268 271 274 278 282 284 287 291 293 296 298 300 303 307 309 309 311 312 313 316 316 318 320 320 319 317 317 316 317 317 315
nan nan nan nan nan nan 243 241 nan nan nan nan nan 236 231 230 231 229 232 nan nan nan nan nan nan nan nan 241 241 241 242 236 nan nan 219 215 210 201 200 206 211 211 218 222 230 243 253 255 256 259 261 266 269 271 271 274 274 277 282 285 285 287 290 292 294 298 301 303 304 305 304 306 307 308 309 311 313 314 313 312 309 310 310 312 314 314
nan nan 238 nan nan nan nan nan nan nan 243 239 233 230 229 232 231 230 239 nan nan nan nan nan nan nan nan 238 240 242 241 nan nan 217 224 213 208 204 205 210 216 222 225 228 235 243 250 252 253 257 258 262 266 266 269 273 276 278 281 284 286 287 289 291 290 295 300 302 302 301 300 303 304 304 306 306 306 306 307 307 305 304 304 307 310 311
236 238 nan nan nan nan nan nan nan nan nan 239 228 225 224 226 226 231 236 nan nan 266 256 247 nan 235 231 231 238 239 237 nan nan 224 219 215 211 209 209 215 223 229 231 233 237 241 244 246 249 250 253 256 257 261 265 270 274 277 280 284 287 288 290 292 291 292 295 299 299 300 301 301 302 302 302 302 302 302 302 300 300 302 302 306 309 310
nan nan nan nan nan nan nan nan nan 244 245 238 227 nan 226 226 230 236 nan nan 240 252 255 248 240 235 231 231 233 231 231 222 221 224 221 219 216 215 215 218 224 230 236 238 239 242 245 247 249 251 252 248 252 258 263 267 272 276 279 283 286 288 290 292 292 292 293 295 297 297 299 300 303 301 299 298 297 298 297 297 297 299 301 304 305 304
236 nan nan nan nan nan nan nan nan 240 244 235 230 nan 235 235 238 233 237 230 232 238 246 244 242 239 235 232 230 231 232 228 226 228 227 221 218 218 221 225 230 233 235 237 239 242 249 251 250 251 251 253 256 259 263 267 270 274 278 281 283 286 288 291 292 292 293 295 296 295 296 299 302 300 297 296 294 295 296 296 296 297 299 302 302 303
nan 237 nan nan nan nan 244 nan nan nan 246 231 229 233 245 237 235 230 230 232 236 240 245 244 243 244 242 238 238 237 235 230 230 233 231 226 223 224 226 230 233 237 239 241 241 243 247 248 249 249 251 254 259 262 266 270 272 274 277 279 282 283 287 290 292 293 293 294 295 295 296 299 303 302 299 297 297 298 299 297 297 296 297 nan nan 298
240 nan nan nan nan nan nan 251 nan 242 235 232 235 238 235 228 229 226 228 237 234 236 237 243 245 244 245 244 242 238 234 231 231 235 236 231 228 228 230 234 238 241 243 244 245 245 245 242 241 242 243 246 250 256 261 267 270 273 276 279 278 279 281 286 288 290 292 292 293 295 297 299 302 301 300 300 300 300 298 297 296 295 295 nan 295 295
nan nan nan 245 247 241 246 249 245 241 238 236 237 234 230 229 227 224 228 235 239 238 237 239 241 241 241 244 241 236 231 230 233 234 234 231 229 230 233 235 236 239 241 242 243 244 246 245 245 246 248 248 249 251 255 260 267 271 272 274 275 274 274 279 285 288 290 293 293 296 298 299 299 298 297 299 300 299 297 298 297 294 294 295 296 297
234 224 235 238 239 238 235 239 244 240 235 232 231 230 224 225 224 225 226 229 230 230 226 229 234 238 236 232 230 226 226 227 229 229 230 229 229 228 230 232 234 238 242 243 241 243 247 249 249 250 250 249 250 252 253 259 267 272 272 276 281 278 273 278 285 287 289 291 293 296 298 299 298 296 296 298 297 296 295 296 295 294 296 298 299 300
223 224 236 239 243 nan nan nan 247 240 230 nan nan nan 221 219 218 218 221 223 226 226 224 222 225 229 229 223 221 226 231 231 231 228 226 225 225 226 228 230 232 234 237 238 239 243 246 247 247 247 248 248 249 252 255 257 263 269 273 275 280 282 279 278 281 284 286 288 290 294 297 298 295 295 296 295 294 294 294 293 293 294 297 298 299 301
223 212 226 246 251 244 248 252 nan nan 226 nan nan nan 216 nan nan 214 217 220 221 221 219 219 221 224 223 222 220 225 230 231 231 228 224 221 221 223 225 228 230 234 235 237 238 242 244 243 242 241 243 246 249 252 258 263 267 272 274 276 281 283 281 278 278 282 285 286 287 291 294 294 291 294 296 295 293 293 293 293 294 296 298 299 300 303
nan 210 229 251 nan 245 246 nan nan nan nan nan nan nan nan nan nan nan 213 nan nan nan nan nan nan nan 219 221 221 223 224 224 228 226 222 218 220 221 224 228 231 233 235 237 237 240 243 242 242 243 246 250 253 257 260 265 268 273 277 281 284 286 283 279 279 281 285 286 287 290 291 289 290 293 293 292 289 280 278 284 290 292 295 288 287 289
215 225 223 239 246 252 252 nan nan nan nan nan nan nan nan nan 210 211 nan nan nan nan nan nan nan nan nan nan nan nan nan nan nan nan nan 223 225 225 226 230 234 236 238 239 239 240 242 243 245 247 248 251 255 260 264 267 270 274 278 280 281 282 281 280 281 283 284 285 287 287 287 285 288 290 290 289 288 285 282 276 nan nan nan 287 nan nan
nan 213 nan 220 nan nan 258 nan 233 228 nan nan nan nan nan nan nan 214 210 207 208 nan nan nan nan nan nan nan nan nan nan nan nan nan nan nan nan nan 232 234 236 238 239 241 242 243 244 244 245 246 247 250 255 261 264 268 271 272 274 276 279 281 282 281 280 281 282 284 285 285 284 285 286 288 288 288 288 289 289 nan nan nan nan nan nan nan